This demonstration page uses our WeatherBlox Daily Observations layout. Learn more.

Left ArrowRight Arrow

Hourly Observations for January 27, 2015

Temp ( °F °C ) Dew Point ( °F °C ) Humidity (%) Winds ( mph kmh ) Pressure ( in mb ) Visibility ( mi km ) Precip ( " mm )
12:53 am 00:53 Clear 33 0.6 26 -3.3 75 75 WNW 5 7 29.93 1013 10 16 0.00 0.00
1:53 am 01:53 Clear 32 0 26 -3.3 79 79 WSW 5 7 29.92 1013 10 16 0.00 0.00
2:53 am 02:53 Cloudy 32 0 26 -3.3 79 79 WSW 3 6 29.92 1013 10 16 0.00 0.00
3:53 am 03:53 Cloudy 33 0.6 27 -2.8 78 78 WSW 3 6 29.89 1012 10 16 0.00 0.00
4:53 am 04:53 Cloudy 34 1.1 27 -2.8 76 76 Calm 29.88 1012 10 16 0.00 0.00
5:53 am 05:53 Cloudy 34 1.1 28 -2.2 79 79 W 3 6 29.88 1012 10 16 0.00 0.00
6:53 am 06:53 Cloudy 33 0.6 28 -2.2 82 82 SSW 3 6 29.91 1013 10 16 0.00 0.00
7:53 am 07:53 Mostly Cloudy 32 0 28 -2.2 85 85 Calm 29.93 1014 10 16 0.00 0.00
8:53 am 08:53 Mostly Sunny 34 1.1 29 -1.7 82 82 Calm 29.93 1014 10 16 0.00 0.00
9:53 am 09:53 Sunny 40 4.4 31 -0.6 70 70 NW 10 17 29.94 1014 10 16 0.00 0.00
10:53 am 10:53 Sunny 44 6.7 32 0 63 63 NNW 14 22 29.96 1014 10 16 0.00 0.00
11:53 am 11:53 Cloudy 45 7.2 31 -0.6 58 58 N 16 26 29.97 1015 10 16 0.00 0.00
12:53 pm 12:53 Cloudy 45 7.2 31 -0.6 58 58 NW 12 19 29.98 1015 10 16 0.00 0.00
1:53 pm 13:53 Cloudy 47 8.3 29 -1.7 50 50 NNW 8 13 29.97 1015 10 16 0.00 0.00
2:53 pm 14:53 Mostly Cloudy 48 8.9 29 -1.7 48 48 N 13 20 29.98 1015 10 16 0.00 0.00
3:53 pm 15:53 Mostly Cloudy 47 8.3 29 -1.7 50 50 NNW 9 15 30.00 1016 10 16 0.00 0.00
4:53 pm 16:53 Mostly Sunny 47 8.3 30 -1.1 52 52 N 7 11 30.00 1016 10 16 0.00 0.00
5:53 pm 17:53 Sunny 44 6.7 30 -1.1 58 58 N 9 15 30.03 1017 10 16 0.00 0.00
6:53 pm 18:53 Clear 41 5 30 -1.1 65 65 N 7 11 30.07 1018 10 16 0.00 0.00
7:53 pm 19:53 Clear 39 3.9 29 -1.7 67 67 N 6 9 30.08 1019 10 16 0.00 0.00
8:53 pm 20:53 Clear 38 3.3 29 -1.7 70 70 NNW 8 13 30.10 1019 10 16 0.00 0.00
9:53 pm 21:53 Clear 38 3.3 28 -2.2 68 68 NNW 8 13 30.10 1019 10 16 0.00 0.00
10:53 pm 22:53 Clear 37 2.8 28 -2.2 70 70 NNW 8 13 30.11 1020 10 16 0.00 0.00
11:53 pm 23:53 Clear 36 2.2 27 -2.8 70 70 N 9 15 30.12 1020 10 16 0.00 0.00

Powered by AerisWeather